GFSGBSN_prec_precacc6_189.txt.gz
Total_Precipitation_Accumulation
0.00 0.00 0.00 0.00 0.00 0.00 0.00 0.00 0.00 0.00 0.00 0.00 0.00 0.00 0.00 0.00 0.00 0.00 0.00 0.00 0.00 0.00 0.00 0.00 0.00 0.00 0.00 0.00 0.00 0.00 0.00 0.00 0.00 0.00 0.00 0.00 0.00 0.00 0.00 0.00 0.00 0.00 0.00 0.00 0.00 0.00 0.00
0.00 0.00 0.00 0.00 0.00 0.00 0.00 0.00 0.00 0.00 0.00 0.00 0.00 0.00 0.00 0.00 0.00 0.00 0.00 0.00 0.00 0.00 0.00 0.00 0.00 0.00 0.00 0.00 0.00 0.00 0.00 0.00 0.00 0.00 0.00 0.00 0.00 0.00 0.00 0.00 0.00 0.00 0.00 0.00 0.00 0.00 0.00
0.00 0.00 0.00 0.00 0.00 0.00 0.00 0.00 0.00 0.00 0.00 0.00 0.00 0.00 0.00 0.00 0.00 0.00 0.00 0.00 0.00 0.00 0.00 0.00 0.01 0.01 0.02 0.00 0.00 0.00 0.00 0.00 0.00 0.00 0.00 0.00 0.00 0.00 0.00 0.00 0.00 0.00 0.00 0.00 0.00 0.00 0.00
0.00 0.00 0.00 0.00 0.00 0.00 0.00 0.00 0.00 0.00 0.00 0.00 0.00 0.00 0.00 0.00 0.00 0.00 0.00 0.00 0.00 0.00 0.00 0.00 0.01 0.01 0.05 0.00 0.00 0.00 0.00 0.00 0.00 0.00 0.00 0.00 0.00 0.00 0.00 0.00 0.00 0.00 0.00 0.00 0.00 0.00 0.00
0.02 0.01 0.01 0.01 0.01 0.01 0.01 0.01 0.00 0.00 0.01 0.01 0.01 0.00 0.00 0.01 0.01 0.00 0.00 0.00 0.00 0.00 0.00 0.01 0.01 0.02 0.02 0.00 0.00 0.00 0.00 0.00 0.00 0.00 0.00 0.00 0.00 0.00 0.00 0.00 0.00 0.00 0.00 0.00 0.00 0.00 0.00
0.02 0.03 0.02 0.03 0.03 0.02 0.02 0.01 0.01 0.01 0.01 0.01 0.01 0.01 0.01 0.01 0.01 0.01 0.02 0.04 0.04 0.03 0.01 0.01 0.07 0.04 0.01 0.00 0.00 0.00 0.00 0.00 0.00 0.00 0.00 0.00 0.00 0.00 0.00 0.00 0.00 0.00 0.00 0.00 0.00 0.00 0.00
0.02 0.02 0.01 0.01 0.01 0.00 0.00 0.01 0.00 0.00 0.01 0.01 0.01 0.01 0.01 0.01 0.02 0.02 0.04 0.03 0.03 0.01 0.03 0.00 0.01 0.00 0.00 0.00 0.00 0.00 0.00 0.00 0.00 0.00 0.00 0.00 0.00 0.00 0.00 0.00 0.00 0.00 0.00 0.00 0.00 0.00 0.00
0.03 0.03 0.02 0.01 0.01 0.00 0.00 0.00 0.00 0.00 0.00 0.00 0.01 0.01 0.01 0.01 0.01 0.01 0.02 0.04 0.00 0.00 0.00 0.00 0.00 0.00 0.00 0.00 0.00 0.00 0.00 0.00 0.00 0.00 0.00 0.00 0.00 0.00 0.00 0.00 0.00 0.00 0.00 0.00 0.00 0.00 0.00
0.05 0.05 0.05 0.04 0.03 0.02 0.02 0.01 0.01 0.00 0.00 0.00 0.00 0.00 0.00 0.00 0.00 0.00 0.00 0.00 0.00 0.01 0.09 0.00 0.00 0.00 0.00 0.00 0.00 0.00 0.00 0.00 0.00 0.00 0.00 0.00 0.00 0.00 0.00 0.00 0.00 0.00 0.00 0.00 0.00 0.00 0.00
0.08 0.08 0.07 0.07 0.06 0.06 0.04 0.05 0.04 0.02 0.02 0.01 0.01 0.00 0.00 0.00 0.00 0.00 0.00 0.00 0.00 0.01 0.21 0.04 0.00 0.00 0.00 0.00 0.00 0.00 0.00 0.00 0.00 0.00 0.00 0.00 0.00 0.00 0.00 0.00 0.00 0.00 0.00 0.00 0.00 0.00 0.00
0.09 0.08 0.06 0.05 0.05 0.06 0.07 0.07 0.09 0.09 0.07 0.08 0.09 0.07 0.03 0.01 0.00 0.00 0.00 0.00 0.02 0.22 0.62 0.07 0.00 0.00 0.00 0.00 0.00 0.00 0.00 0.00 0.00 0.00 0.00 0.00 0.00 0.00 0.00 0.00 0.00 0.00 0.00 0.00 0.00 0.00 0.00
0.06 0.06 0.08 0.09 0.10 0.10 0.11 0.12 0.15 0.16 0.15 0.15 0.16 0.18 0.20 0.13 0.03 0.00 0.01 0.05 0.30 0.69 0.63 0.02 0.00 0.00 0.00 0.00 0.00 0.00 0.00 0.00 0.00 0.00 0.00 0.00 0.00 0.00 0.00 0.00 0.00 0.00 0.00 0.00 0.00 0.00 0.03
0.03 0.02 0.04 0.08 0.11 0.12 0.13 0.16 0.19 0.19 0.19 0.19 0.17 0.17 0.18 0.18 0.10 0.04 0.11 0.41 0.85 0.85 0.17 0.00 0.00 0.00 0.00 0.00 0.00 0.00 0.00 0.00 0.00 0.00 0.00 0.00 0.00 0.00 0.00 0.00 0.00 0.00 0.00 0.04 0.05 0.04 0.04
0.03 0.03 0.02 0.03 0.07 0.11 0.15 0.18 0.16 0.17 0.21 0.20 0.22 0.25 0.19 0.12 0.10 0.15 0.32 0.68 0.96 0.36 0.02 0.00 0.00 0.00 0.00 0.00 0.00 0.00 0.00 0.00 0.00 0.00 0.00 0.00 0.00 0.00 0.00 0.00 0.00 0.00 0.00 0.01 0.02 0.01 0.00
0.01 0.01 0.02 0.02 0.03 0.06 0.09 0.13 0.17 0.18 0.19 0.19 0.21 0.23 0.23 0.05 0.07 0.35 0.76 0.98 0.60 0.15 0.01 0.00 0.00 0.01 0.02 0.00 0.00 0.01 0.02 0.00 0.00 0.00 0.00 0.00 0.00 0.00 0.00 0.00 0.00 0.00 0.01 0.00 0.02 0.03 0.07
0.01 0.01 0.02 0.03 0.03 0.04 0.05 0.10 0.14 0.15 0.16 0.20 0.25 0.26 0.15 0.01 0.09 0.45 1.05 1.01 0.44 0.12 0.08 0.08 0.06 0.01 0.01 0.00 0.02 0.05 0.08 0.03 0.01 0.00 0.02 0.02 0.01 0.00 0.00 0.00 0.00 0.00 0.00 0.00 0.05 0.19 0.15
0.00 0.00 0.01 0.02 0.01 0.02 0.04 0.04 0.07 0.11 0.14 0.20 0.27 0.35 0.11 0.01 0.12 0.54 0.92 0.54 0.24 0.08 0.06 0.24 0.30 0.18 0.08 0.07 0.04 0.03 0.11 0.08 0.04 0.02 0.03 0.04 0.05 0.01 0.00 0.00 0.00 0.00 0.00 0.01 0.02 0.02 0.01
0.00 0.00 0.00 0.01 0.01 0.01 0.01 0.03 0.03 0.06 0.16 0.26 0.34 0.39 0.07 0.05 0.12 0.30 0.35 0.28 0.21 0.16 0.14 0.38 0.42 0.31 0.23 0.16 0.29 0.27 0.22 0.15 0.09 0.11 0.19 0.18 0.16 0.08 0.01 0.01 0.01 0.00 0.00 0.03 0.04 0.03 0.04
0.01 0.00 0.00 0.00 0.01 0.01 0.01 0.01 0.02 0.06 0.16 0.25 0.29 0.16 0.04 0.16 0.29 0.12 0.05 0.07 0.16 0.21 0.18 0.35 0.47 0.43 0.33 0.26 0.30 0.21 0.16 0.15 0.20 0.32 0.42 0.39 0.62 0.67 0.47 0.36 0.25 0.10 0.04 0.04 0.07 0.15 0.18
0.01 0.01 0.01 0.01 0.01 0.00 0.01 0.01 0.01 0.05 0.16 0.29 0.31 0.20 0.08 0.15 0.16 0.09 0.06 0.07 0.10 0.10 0.10 0.16 0.28 0.25 0.27 0.20 0.15 0.26 0.07 0.01 0.01 0.05 0.10 0.19 0.33 0.24 0.20 0.21 0.26 0.33 0.28 0.26 0.35 0.43 0.32
0.01 0.01 0.01 0.01 0.01 0.01 0.01 0.02 0.03 0.06 0.14 0.27 0.30 0.18 0.06 0.09 0.09 0.05 0.07 0.09 0.01 0.00 0.03 0.04 0.07 0.11 0.19 0.22 0.09 0.10 0.09 0.04 0.01 0.01 0.05 0.18 0.37 0.15 0.08 0.05 0.07 0.08 0.08 0.11 0.17 0.19 0.20
0.01 0.01 0.01 0.01 0.02 0.01 0.01 0.03 0.04 0.06 0.16 0.39 0.28 0.11 0.10 0.07 0.02 0.03 0.09 0.16 0.04 0.01 0.01 0.01 0.02 0.02 0.05 0.10 0.10 0.09 0.13 0.21 0.26 0.17 0.11 0.13 0.22 0.14 0.12 0.06 0.11 0.15 0.10 0.08 0.07 0.06 0.05
0.02 0.03 0.03 0.02 0.03 0.05 0.04 0.04 0.04 0.06 0.14 0.33 0.26 0.14 0.10 0.12 0.08 0.09 0.05 0.01 0.00 0.00 0.00 0.00 0.00 0.00 0.00 0.00 0.00 0.02 0.04 0.08 0.21 0.32 0.34 0.24 0.23 0.24 0.18 0.08 0.14 0.22 0.05 0.02 0.02 0.01 0.00
0.04 0.05 0.06 0.06 0.05 0.05 0.08 0.10 0.08 0.08 0.09 0.10 0.13 0.06 0.10 0.11 0.06 0.02 0.02 0.02 0.01 0.00 0.00 0.00 0.00 0.00 0.00 0.00 0.00 0.00 0.02 0.04 0.06 0.08 0.23 0.37 0.26 0.23 0.17 0.15 0.28 0.06 0.00 0.01 0.00 0.00 0.00
0.05 0.09 0.09 0.09 0.08 0.06 0.07 0.08 0.09 0.11 0.12 0.05 0.06 0.09 0.09 0.05 0.01 0.00 0.00 0.00 0.00 0.00 0.00 0.00 0.00 0.00 0.00 0.02 0.02 0.02 0.05 0.08 0.05 0.01 0.02 0.10 0.27 0.33 0.17 0.14 0.09 0.02 0.00 0.00 0.00 0.00 0.00
0.09 0.20 0.19 0.12 0.09 0.09 0.13 0.09 0.06 0.07 0.16 0.15 0.04 0.04 0.06 0.04 0.00 0.00 0.00 0.02 0.03 0.06 0.08 0.01 0.00 0.00 0.02 0.07 0.10 0.09 0.03 0.06 0.07 0.05 0.03 0.04 0.16 0.43 0.39 0.20 0.06 0.00 0.00 0.00 0.00 0.00 0.00
0.10 0.16 0.20 0.10 0.08 0.05 0.06 0.08 0.07 0.08 0.21 0.25 0.09 0.04 0.05 0.02 0.00 0.00 0.00 0.03 0.10 0.05 0.03 0.00 0.00 0.01 0.07 0.13 0.11 0.16 0.15 0.08 0.08 0.10 0.13 0.16 0.15 0.21 0.30 0.33 0.15 0.01 0.00 0.00 0.00 0.00 0.00
0.03 0.05 0.05 0.09 0.05 0.06 0.04 0.04 0.07 0.10 0.30 0.40 0.12 0.06 0.04 0.01 0.00 0.00 0.00 0.00 0.00 0.03 0.00 0.00 0.00 0.00 0.01 0.04 0.11 0.11 0.14 0.12 0.08 0.03 0.11 0.25 0.23 0.15 0.15 0.23 0.22 0.13 0.03 0.01 0.00 0.00 0.00
0.02 0.02 0.04 0.05 0.06 0.05 0.06 0.06 0.06 0.12 0.32 0.39 0.22 0.07 0.02 0.00 0.00 0.00 0.00 0.00 0.00 0.00 0.00 0.00 0.00 0.00 0.00 0.01 0.02 0.01 0.04 0.07 0.06 0.04 0.01 0.13 0.12 0.21 0.29 0.37 0.37 0.29 0.13 0.03 0.00 0.00 0.00

GFSGBSN_prec_precacc6_192.txt.gz
Total_Precipitation_Accumulation
0.00 0.00 0.00 0.00 0.00 0.00 0.00 0.00 0.00 0.00 0.00 0.00 0.00 0.00 0.00 0.00 0.00 0.00 0.00 0.00 0.00 0.00 0.00 0.00 0.00 0.00 0.00 0.00 0.00 0.00 0.00 0.00 0.00 0.00 0.00 0.00 0.00 0.00 0.00 0.00 0.00 0.00 0.00 0.00 0.00 0.00 0.00
0.00 0.00 0.00 0.00 0.00 0.00 0.00 0.00 0.00 0.00 0.00 0.00 0.00 0.00 0.00 0.00 0.00 0.00 0.00 0.00 0.00 0.00 0.00 0.00 0.00 0.01 0.01 0.00 0.00 0.00 0.00 0.00 0.00 0.00 0.00 0.00 0.00 0.00 0.00 0.00 0.00 0.00 0.00 0.00 0.00 0.00 0.00
0.00 0.00 0.00 0.00 0.00 0.00 0.00 0.00 0.00 0.00 0.00 0.00 0.00 0.00 0.00 0.00 0.00 0.00 0.00 0.00 0.00 0.00 0.00 0.00 0.00 0.01 0.06 0.01 0.00 0.00 0.00 0.00 0.00 0.00 0.00 0.00 0.00 0.00 0.00 0.00 0.00 0.00 0.00 0.00 0.00 0.00 0.00
0.00 0.00 0.00 0.00 0.00 0.00 0.00 0.00 0.00 0.00 0.00 0.00 0.00 0.00 0.00 0.00 0.00 0.00 0.00 0.00 0.00 0.00 0.00 0.00 0.01 0.03 0.09 0.00 0.00 0.00 0.00 0.00 0.00 0.00 0.00 0.00 0.00 0.00 0.00 0.00 0.00 0.00 0.00 0.00 0.00 0.00 0.00
0.02 0.02 0.02 0.02 0.01 0.01 0.01 0.01 0.01 0.01 0.01 0.01 0.01 0.01 0.01 0.01 0.01 0.01 0.01 0.01 0.01 0.01 0.01 0.02 0.05 0.05 0.04 0.00 0.00 0.00 0.00 0.00 0.00 0.00 0.00 0.00 0.00 0.00 0.00 0.00 0.00 0.00 0.00 0.00 0.00 0.00 0.00
0.04 0.03 0.03 0.02 0.02 0.02 0.02 0.02 0.01 0.01 0.01 0.01 0.01 0.01 0.01 0.01 0.01 0.01 0.02 0.05 0.05 0.03 0.01 0.02 0.13 0.09 0.01 0.00 0.00 0.00 0.00 0.00 0.00 0.00 0.00 0.00 0.00 0.00 0.00 0.00 0.00 0.00 0.00 0.00 0.00 0.00 0.00
0.04 0.03 0.03 0.02 0.01 0.01 0.01 0.01 0.00 0.00 0.00 0.00 0.00 0.00 0.00 0.01 0.01 0.01 0.03 0.02 0.02 0.01 0.04 0.01 0.02 0.00 0.00 0.00 0.00 0.00 0.00 0.00 0.00 0.00 0.00 0.00 0.00 0.00 0.00 0.00 0.00 0.00 0.00 0.00 0.00 0.00 0.00
0.06 0.05 0.04 0.04 0.03 0.02 0.02 0.01 0.01 0.00 0.00 0.00 0.00 0.00 0.00 0.01 0.00 0.01 0.02 0.03 0.00 0.00 0.00 0.00 0.00 0.00 0.00 0.00 0.00 0.00 0.00 0.00 0.00 0.00 0.00 0.00 0.00 0.00 0.00 0.00 0.00 0.00 0.00 0.00 0.00 0.00 0.00
0.08 0.08 0.07 0.06 0.04 0.03 0.03 0.03 0.02 0.00 0.00 0.00 0.00 0.00 0.00 0.00 0.00 0.00 0.00 0.00 0.00 0.00 0.04 0.00 0.00 0.00 0.00 0.00 0.00 0.00 0.00 0.00 0.00 0.00 0.00 0.00 0.00 0.00 0.00 0.00 0.00 0.00 0.00 0.00 0.00 0.00 0.00
0.09 0.09 0.08 0.06 0.04 0.04 0.03 0.03 0.03 0.02 0.02 0.02 0.02 0.02 0.01 0.00 0.00 0.00 0.00 0.00 0.00 0.01 0.25 0.06 0.00 0.00 0.00 0.00 0.00 0.00 0.00 0.00 0.00 0.00 0.00 0.00 0.00 0.00 0.00 0.00 0.00 0.00 0.00 0.00 0.00 0.00 0.00
0.11 0.10 0.08 0.06 0.05 0.05 0.05 0.05 0.06 0.09 0.08 0.07 0.08 0.11 0.10 0.06 0.01 0.01 0.00 0.00 0.02 0.26 0.81 0.15 0.00 0.00 0.00 0.00 0.00 0.00 0.00 0.00 0.00 0.00 0.00 0.00 0.00 0.00 0.00 0.00 0.00 0.00 0.00 0.00 0.00 0.00 0.00
0.06 0.06 0.06 0.07 0.06 0.05 0.05 0.06 0.08 0.10 0.10 0.11 0.13 0.15 0.20 0.20 0.11 0.05 0.04 0.10 0.30 0.81 0.81 0.05 0.00 0.00 0.00 0.00 0.00 0.00 0.00 0.00 0.00 0.00 0.00 0.00 0.00 0.00 0.00 0.00 0.00 0.00 0.00 0.00 0.00 0.01 0.04
0.02 0.02 0.02 0.02 0.03 0.03 0.03 0.04 0.08 0.11 0.14 0.19 0.23 0.19 0.18 0.23 0.19 0.15 0.22 0.56 0.94 0.89 0.22 0.01 0.00 0.00 0.00 0.00 0.00 0.00 0.00 0.00 0.00 0.01 0.01 0.00 0.00 0.00 0.00 0.00 0.00 0.00 0.00 0.04 0.07 0.06 0.05
0.01 0.01 0.01 0.01 0.02 0.02 0.02 0.04 0.07 0.10 0.15 0.19 0.22 0.19 0.18 0.16 0.16 0.23 0.39 0.71 1.00 0.45 0.05 0.00 0.00 0.00 0.00 0.00 0.00 0.01 0.02 0.01 0.00 0.00 0.01 0.01 0.00 0.00 0.00 0.00 0.00 0.00 0.00 0.02 0.03 0.02 0.01
0.01 0.01 0.01 0.01 0.01 0.01 0.01 0.03 0.05 0.08 0.13 0.16 0.18 0.21 0.20 0.05 0.09 0.37 0.74 0.95 0.58 0.15 0.05 0.02 0.00 0.01 0.02 0.00 0.02 0.04 0.06 0.02 0.01 0.01 0.01 0.02 0.01 0.00 0.00 0.00 0.00 0.00 0.01 0.01 0.04 0.03 0.07
0.01 0.01 0.01 0.01 0.01 0.01 0.01 0.03 0.05 0.07 0.08 0.13 0.17 0.22 0.12 0.01 0.06 0.39 0.89 0.81 0.28 0.11 0.16 0.17 0.16 0.08 0.05 0.02 0.04 0.09 0.12 0.06 0.06 0.06 0.09 0.14 0.08 0.01 0.00 0.00 0.00 0.00 0.00 0.03 0.07 0.23 0.19
0.00 0.00 0.00 0.00 0.01 0.01 0.01 0.01 0.02 0.04 0.05 0.09 0.11 0.20 0.08 0.01 0.14 0.51 0.79 0.40 0.13 0.05 0.07 0.27 0.35 0.33 0.18 0.16 0.14 0.13 0.15 0.12 0.10 0.07 0.09 0.16 0.22 0.10 0.02 0.02 0.00 0.01 0.02 0.03 0.03 0.03 0.03
0.00 0.00 0.00 0.01 0.01 0.01 0.01 0.01 0.02 0.03 0.05 0.07 0.11 0.14 0.03 0.03 0.15 0.26 0.24 0.14 0.09 0.08 0.10 0.25 0.32 0.31 0.28 0.21 0.31 0.31 0.29 0.23 0.24 0.22 0.20 0.31 0.50 0.39 0.17 0.10 0.05 0.03 0.03 0.04 0.05 0.03 0.03
0.01 0.01 0.01 0.01 0.01 0.01 0.01 0.01 0.01 0.05 0.08 0.07 0.10 0.05 0.01 0.08 0.22 0.12 0.05 0.03 0.05 0.09 0.09 0.18 0.26 0.30 0.30 0.25 0.25 0.13 0.13 0.11 0.18 0.35 0.44 0.34 0.54 0.58 0.41 0.39 0.30 0.19 0.11 0.14 0.20 0.15 0.09
0.01 0.02 0.01 0.01 0.01 0.01 0.01 0.01 0.02 0.04 0.12 0.05 0.10 0.09 0.04 0.08 0.07 0.07 0.06 0.06 0.05 0.04 0.04 0.07 0.15 0.15 0.16 0.13 0.11 0.17 0.04 0.00 0.00 0.04 0.09 0.22 0.36 0.28 0.27 0.28 0.39 0.54 0.50 0.47 0.54 0.63 0.45
0.00 0.00 0.01 0.01 0.02 0.02 0.01 0.02 0.04 0.07 0.16 0.09 0.13 0.10 0.06 0.09 0.08 0.04 0.09 0.09 0.02 0.02 0.02 0.01 0.02 0.05 0.06 0.05 0.02 0.03 0.01 0.01 0.00 0.01 0.04 0.18 0.37 0.18 0.13 0.09 0.05 0.07 0.06 0.11 0.28 0.40 0.52
0.01 0.01 0.01 0.00 0.01 0.01 0.02 0.03 0.02 0.05 0.20 0.25 0.16 0.08 0.06 0.05 0.05 0.08 0.14 0.20 0.12 0.09 0.08 0.04 0.01 0.00 0.01 0.00 0.00 0.00 0.00 0.00 0.01 0.01 0.04 0.12 0.17 0.10 0.10 0.03 0.02 0.04 0.02 0.02 0.04 0.07 0.10
0.02 0.03 0.03 0.02 0.02 0.02 0.02 0.03 0.04 0.05 0.16 0.26 0.22 0.15 0.09 0.11 0.06 0.10 0.09 0.05 0.04 0.05 0.03 0.01 0.01 0.00 0.00 0.00 0.00 0.00 0.00 0.00 0.00 0.02 0.03 0.12 0.20 0.21 0.18 0.08 0.15 0.24 0.07 0.02 0.02 0.01 0.03
0.03 0.03 0.03 0.04 0.05 0.06 0.06 0.08 0.08 0.09 0.13 0.09 0.11 0.12 0.18 0.13 0.08 0.05 0.03 0.03 0.02 0.01 0.00 0.00 0.00 0.00 0.00 0.00 0.00 0.00 0.00 0.00 0.00 0.00 0.02 0.05 0.08 0.16 0.15 0.12 0.23 0.08 0.02 0.02 0.04 0.05 0.06
0.06 0.06 0.05 0.04 0.07 0.10 0.10 0.09 0.11 0.12 0.16 0.06 0.06 0.11 0.15 0.14 0.04 0.03 0.02 0.01 0.00 0.00 0.00 0.00 0.00 0.00 0.00 0.00 0.02 0.01 0.00 0.00 0.00 0.00 0.00 0.01 0.08 0.18 0.14 0.12 0.09 0.02 0.00 0.00 0.01 0.01 0.01
0.06 0.08 0.09 0.09 0.09 0.13 0.14 0.09 0.08 0.10 0.15 0.14 0.03 0.05 0.11 0.15 0.07 0.01 0.00 0.00 0.01 0.01 0.02 0.01 0.00 0.00 0.01 0.03 0.06 0.06 0.01 0.03 0.05 0.07 0.06 0.03 0.09 0.26 0.23 0.19 0.09 0.01 0.00 0.00 0.00 0.00 0.00
0.08 0.11 0.17 0.16 0.10 0.08 0.06 0.09 0.08 0.09 0.12 0.22 0.14 0.05 0.07 0.09 0.03 0.00 0.00 0.00 0.02 0.01 0.01 0.01 0.01 0.04 0.05 0.12 0.10 0.11 0.14 0.13 0.10 0.09 0.12 0.18 0.25 0.28 0.16 0.22 0.13 0.02 0.00 0.00 0.03 0.01 0.00
0.02 0.03 0.03 0.07 0.04 0.07 0.05 0.04 0.06 0.08 0.11 0.23 0.17 0.09 0.06 0.05 0.01 0.00 0.00 0.00 0.00 0.00 0.01 0.01 0.01 0.02 0.02 0.04 0.10 0.06 0.08 0.07 0.07 0.07 0.07 0.20 0.28 0.35 0.31 0.29 0.27 0.16 0.07 0.05 0.04 0.00 0.00
0.00 0.00 0.01 0.04 0.06 0.09 0.09 0.06 0.04 0.07 0.16 0.24 0.28 0.16 0.13 0.07 0.02 0.00 0.00 0.00 0.00 0.00 0.00 0.01 0.01 0.00 0.02 0.03 0.03 0.01 0.02 0.03 0.03 0.04 0.01 0.08 0.06 0.14 0.25 0.45 0.37 0.43 0.32 0.12 0.06 0.03 0.00

GFSGBSN_prec_precacc6_195.txt.gz
Total_Precipitation_Accumulation
0.00 0.00 0.00 0.00 0.00 0.00 0.00 0.00 0.00 0.00 0.00 0.00 0.00 0.00 0.00 0.00 0.00 0.00 0.00 0.00 0.00 0.00 0.00 0.00 0.00 0.00 0.00 0.00 0.00 0.00 0.00 0.00 0.00 0.00 0.00 0.00 0.00 0.00 0.00 0.00 0.00 0.00 0.00 0.00 0.00 0.00 0.00
0.00 0.00 0.00 0.00 0.00 0.00 0.00 0.00 0.00 0.00 0.00 0.00 0.00 0.00 0.00 0.00 0.00 0.00 0.00 0.00 0.00 0.00 0.00 0.00 0.00 0.00 0.02 0.02 0.00 0.00 0.00 0.00 0.00 0.00 0.00 0.00 0.00 0.00 0.00 0.00 0.00 0.00 0.00 0.00 0.00 0.00 0.00
0.00 0.00 0.00 0.00 0.00 0.00 0.00 0.00 0.00 0.00 0.00 0.00 0.00 0.00 0.00 0.00 0.00 0.00 0.00 0.00 0.00 0.00 0.00 0.00 0.00 0.01 0.10 0.03 0.00 0.00 0.00 0.00 0.00 0.00 0.00 0.00 0.00 0.00 0.00 0.00 0.00 0.00 0.00 0.00 0.00 0.00 0.00
0.00 0.00 0.00 0.00 0.00 0.00 0.00 0.00 0.01 0.00 0.01 0.00 0.00 0.00 0.00 0.00 0.00 0.00 0.00 0.00 0.00 0.00 0.00 0.00 0.02 0.08 0.16 0.00 0.00 0.00 0.00 0.00 0.00 0.00 0.00 0.00 0.00 0.00 0.00 0.00 0.00 0.00 0.00 0.00 0.00 0.00 0.00
0.05 0.03 0.02 0.02 0.02 0.01 0.01 0.01 0.01 0.01 0.01 0.01 0.01 0.00 0.00 0.00 0.00 0.00 0.00 0.01 0.01 0.00 0.01 0.02 0.08 0.07 0.06 0.00 0.00 0.00 0.00 0.00 0.00 0.00 0.00 0.00 0.00 0.00 0.00 0.00 0.00 0.00 0.00 0.00 0.00 0.00 0.00
0.16 0.11 0.07 0.05 0.05 0.04 0.03 0.02 0.00 0.00 0.00 0.00 0.00 0.00 0.00 0.00 0.00 0.00 0.00 0.02 0.02 0.01 0.01 0.02 0.13 0.11 0.01 0.00 0.00 0.00 0.00 0.00 0.00 0.00 0.00 0.00 0.00 0.00 0.00 0.00 0.00 0.00 0.00 0.00 0.00 0.00 0.00
0.17 0.14 0.10 0.07 0.05 0.04 0.03 0.02 0.01 0.01 0.00 0.00 0.00 0.00 0.00 0.00 0.00 0.00 0.01 0.01 0.01 0.01 0.03 0.00 0.02 0.00 0.00 0.00 0.00 0.00 0.00 0.00 0.00 0.00 0.00 0.00 0.00 0.00 0.00 0.00 0.00 0.00 0.00 0.00 0.00 0.00 0.00
0.15 0.14 0.15 0.13 0.08 0.06 0.05 0.03 0.02 0.01 0.00 0.00 0.00 0.00 0.00 0.00 0.00 0.00 0.02 0.02 0.00 0.01 0.01 0.00 0.00 0.00 0.00 0.00 0.00 0.00 0.00 0.00 0.00 0.00 0.00 0.00 0.00 0.00 0.00 0.00 0.00 0.00 0.00 0.00 0.00 0.00 0.00
0.16 0.17 0.16 0.12 0.09 0.07 0.06 0.04 0.03 0.02 0.01 0.01 0.01 0.01 0.00 0.00 0.00 0.00 0.01 0.00 0.00 0.02 0.06 0.01 0.00 0.00 0.00 0.00 0.00 0.00 0.00 0.00 0.00 0.00 0.00 0.00 0.00 0.00 0.00 0.00 0.00 0.00 0.00 0.00 0.00 0.00 0.00
0.12 0.12 0.12 0.12 0.10 0.07 0.05 0.04 0.04 0.04 0.03 0.02 0.02 0.02 0.02 0.02 0.01 0.00 0.01 0.00 0.00 0.05 0.48 0.18 0.00 0.00 0.00 0.00 0.01 0.00 0.00 0.00 0.00 0.00 0.00 0.00 0.00 0.00 0.00 0.00 0.00 0.00 0.00 0.00 0.00 0.00 0.00
0.17 0.15 0.15 0.15 0.15 0.12 0.10 0.08 0.07 0.08 0.08 0.06 0.05 0.08 0.10 0.12 0.03 0.02 0.01 0.01 0.02 0.32 1.03 0.25 0.00 0.00 0.00 0.00 0.00 0.00 0.00 0.00 0.00 0.00 0.01 0.00 0.00 0.00 0.00 0.00 0.00 0.00 0.00 0.00 0.00 0.00 0.00
0.10 0.08 0.09 0.12 0.11 0.08 0.07 0.07 0.08 0.07 0.08 0.08 0.10 0.12 0.14 0.15 0.12 0.08 0.07 0.14 0.37 0.76 0.87 0.08 0.00 0.00 0.01 0.01 0.00 0.00 0.00 0.00 0.00 0.01 0.01 0.00 0.00 0.00 0.00 0.00 0.00 0.00 0.00 0.00 0.01 0.02 0.04
0.03 0.04 0.04 0.04 0.04 0.04 0.03 0.03 0.04 0.03 0.06 0.11 0.16 0.14 0.12 0.15 0.16 0.16 0.17 0.43 0.94 0.91 0.21 0.01 0.00 0.00 0.01 0.01 0.01 0.01 0.02 0.02 0.00 0.02 0.01 0.01 0.00 0.00 0.00 0.00 0.00 0.00 0.00 0.03 0.06 0.06 0.05
0.00 0.01 0.01 0.01 0.02 0.02 0.03 0.03 0.03 0.03 0.03 0.07 0.09 0.07 0.10 0.12 0.15 0.26 0.35 0.59 0.90 0.45 0.06 0.00 0.00 0.01 0.02 0.01 0.02 0.03 0.08 0.06 0.02 0.03 0.04 0.04 0.01 0.00 0.00 0.00 0.00 0.00 0.01 0.03 0.03 0.03 0.01
0.01 0.01 0.01 0.01 0.01 0.01 0.01 0.02 0.02 0.02 0.02 0.04 0.07 0.09 0.08 0.03 0.08 0.29 0.68 0.87 0.49 0.14 0.09 0.04 0.01 0.05 0.03 0.01 0.05 0.09 0.10 0.05 0.02 0.06 0.08 0.05 0.02 0.00 0.00 0.00 0.00 0.01 0.02 0.01 0.05 0.04 0.09
0.01 0.01 0.00 0.01 0.00 0.01 0.01 0.01 0.01 0.03 0.03 0.06 0.11 0.09 0.04 0.00 0.07 0.30 0.73 0.69 0.19 0.05 0.15 0.19 0.18 0.23 0.22 0.14 0.19 0.22 0.19 0.12 0.13 0.15 0.25 0.41 0.24 0.03 0.00 0.01 0.01 0.00 0.01 0.06 0.10 0.27 0.22
0.00 0.00 0.00 0.00 0.00 0.00 0.00 0.01 0.01 0.01 0.04 0.05 0.07 0.05 0.01 0.02 0.15 0.42 0.64 0.32 0.11 0.02 0.04 0.21 0.29 0.32 0.19 0.16 0.19 0.23 0.21 0.13 0.14 0.13 0.13 0.24 0.38 0.25 0.07 0.08 0.08 0.09 0.09 0.08 0.09 0.10 0.07
0.01 0.01 0.01 0.01 0.01 0.01 0.01 0.00 0.01 0.01 0.03 0.04 0.05 0.02 0.01 0.06 0.12 0.16 0.19 0.11 0.07 0.04 0.05 0.12 0.19 0.20 0.19 0.14 0.18 0.17 0.23 0.20 0.23 0.18 0.15 0.32 0.54 0.42 0.18 0.12 0.11 0.14 0.18 0.25 0.34 0.27 0.17
0.01 0.01 0.01 0.01 0.01 0.01 0.01 0.01 0.00 0.01 0.05 0.07 0.04 0.01 0.01 0.10 0.11 0.07 0.04 0.03 0.04 0.05 0.05 0.09 0.12 0.14 0.15 0.14 0.16 0.06 0.07 0.04 0.04 0.10 0.14 0.11 0.23 0.20 0.09 0.18 0.24 0.31 0.35 0.57 0.82 0.89 0.53
0.01 0.01 0.01 0.01 0.01 0.01 0.02 0.03 0.03 0.02 0.05 0.07 0.05 0.03 0.03 0.06 0.04 0.05 0.06 0.08 0.06 0.02 0.04 0.05 0.05 0.06 0.06 0.05 0.06 0.06 0.01 0.00 0.00 0.00 0.01 0.08 0.19 0.19 0.16 0.09 0.19 0.28 0.31 0.39 0.58 0.73 0.58
0.00 0.00 0.01 0.01 0.01 0.01 0.01 0.03 0.05 0.08 0.12 0.11 0.08 0.06 0.03 0.05 0.05 0.03 0.06 0.06 0.03 0.05 0.06 0.05 0.06 0.03 0.03 0.02 0.03 0.02 0.01 0.00 0.00 0.00 0.01 0.05 0.09 0.08 0.10 0.09 0.05 0.04 0.04 0.07 0.22 0.38 0.52
0.01 0.01 0.01 0.01 0.01 0.01 0.02 0.03 0.03 0.06 0.18 0.19 0.09 0.04 0.05 0.04 0.06 0.09 0.12 0.13 0.11 0.12 0.15 0.11 0.06 0.04 0.08 0.03 0.01 0.00 0.01 0.00 0.00 0.00 0.00 0.01 0.01 0.00 0.02 0.01 0.01 0.02 0.00 0.00 0.02 0.05 0.15
0.02 0.03 0.03 0.03 0.02 0.02 0.03 0.04 0.04 0.06 0.16 0.25 0.15 0.10 0.10 0.09 0.06 0.08 0.09 0.10 0.09 0.11 0.10 0.07 0.08 0.09 0.07 0.06 0.02 0.01 0.01 0.00 0.00 0.00 0.00 0.01 0.00 0.00 0.01 0.00 0.04 0.09 0.03 0.00 0.00 0.01 0.05
0.02 0.03 0.03 0.04 0.05 0.04 0.05 0.06 0.07 0.10 0.15 0.13 0.06 0.11 0.16 0.09 0.09 0.10 0.07 0.06 0.07 0.05 0.04 0.01 0.02 0.03 0.02 0.00 0.00 0.00 0.00 0.00 0.00 0.00 0.00 0.01 0.01 0.02 0.01 0.00 0.03 0.03 0.01 0.01 0.03 0.05 0.06
0.03 0.03 0.04 0.04 0.05 0.08 0.09 0.10 0.12 0.11 0.12 0.13 0.08 0.07 0.14 0.17 0.11 0.12 0.08 0.07 0.04 0.02 0.01 0.01 0.01 0.01 0.00 0.00 0.01 0.01 0.00 0.00 0.00 0.00 0.00 0.00 0.03 0.06 0.03 0.01 0.01 0.00 0.00 0.01 0.01 0.02 0.01
0.02 0.03 0.05 0.07 0.08 0.08 0.08 0.08 0.12 0.13 0.13 0.13 0.08 0.06 0.11 0.17 0.13 0.07 0.13 0.05 0.02 0.04 0.04 0.01 0.00 0.00 0.01 0.03 0.05 0.03 0.01 0.01 0.01 0.03 0.05 0.06 0.06 0.14 0.07 0.07 0.05 0.04 0.03 0.00 0.01 0.02 0.00
0.02 0.03 0.10 0.14 0.10 0.10 0.10 0.13 0.08 0.11 0.15 0.22 0.18 0.03 0.07 0.12 0.07 0.04 0.05 0.07 0.02 0.04 0.04 0.05 0.05 0.09 0.08 0.11 0.12 0.08 0.09 0.12 0.10 0.09 0.06 0.08 0.23 0.37 0.20 0.21 0.13 0.09 0.02 0.03 0.13 0.16 0.08
0.00 0.00 0.01 0.03 0.03 0.05 0.05 0.06 0.04 0.05 0.14 0.30 0.26 0.06 0.05 0.08 0.06 0.01 0.00 0.03 0.05 0.05 0.07 0.06 0.04 0.09 0.09 0.09 0.12 0.10 0.07 0.07 0.04 0.06 0.04 0.08 0.16 0.29 0.28 0.31 0.36 0.13 0.09 0.17 0.20 0.13 0.06
0.00 0.00 0.01 0.02 0.02 0.06 0.06 0.04 0.05 0.07 0.10 0.18 0.25 0.16 0.16 0.13 0.07 0.01 0.00 0.01 0.01 0.02 0.04 0.04 0.05 0.05 0.07 0.09 0.11 0.05 0.02 0.01 0.01 0.02 0.01 0.03 0.02 0.03 0.09 0.25 0.19 0.24 0.32 0.21 0.16 0.21 0.11

GFSGBSN_prec_precacc6_198.txt.gz
Total_Precipitation_Accumulation
0.00 0.00 0.00 0.00 0.00 0.00 0.00 0.00 0.00 0.00 0.00 0.00 0.00 0.00 0.00 0.00 0.00 0.00 0.00 0.00 0.00 0.00 0.00 0.00 0.00 0.00 0.00 0.00 0.00 0.00 0.00 0.00 0.00 0.00 0.00 0.00 0.00 0.00 0.00 0.00 0.00 0.00 0.00 0.00 0.00 0.00 0.00
0.00 0.00 0.00 0.00 0.00 0.00 0.00 0.00 0.00 0.00 0.00 0.00 0.00 0.00 0.00 0.00 0.00 0.00 0.00 0.00 0.00 0.00 0.00 0.00 0.00 0.00 0.02 0.04 0.00 0.00 0.00 0.00 0.00 0.00 0.00 0.00 0.00 0.00 0.00 0.00 0.00 0.00 0.00 0.00 0.00 0.00 0.00
0.00 0.00 0.00 0.00 0.00 0.00 0.00 0.00 0.00 0.00 0.00 0.00 0.00 0.00 0.00 0.00 0.00 0.00 0.00 0.00 0.00 0.00 0.00 0.00 0.00 0.03 0.13 0.04 0.00 0.00 0.00 0.00 0.00 0.00 0.00 0.00 0.00 0.00 0.00 0.00 0.00 0.00 0.00 0.00 0.00 0.00 0.00
0.00 0.00 0.00 0.00 0.00 0.00 0.00 0.00 0.00 0.00 0.00 0.00 0.00 0.00 0.00 0.00 0.00 0.00 0.00 0.00 0.00 0.00 0.00 0.00 0.03 0.11 0.19 0.00 0.00 0.00 0.00 0.00 0.00 0.00 0.00 0.00 0.00 0.00 0.00 0.00 0.00 0.00 0.00 0.00 0.00 0.00 0.00
0.34 0.29 0.24 0.18 0.09 0.04 0.02 0.01 0.01 0.00 0.00 0.00 0.00 0.00 0.00 0.00 0.00 0.00 0.00 0.00 0.00 0.00 0.00 0.01 0.06 0.06 0.05 0.00 0.00 0.00 0.00 0.00 0.00 0.00 0.00 0.00 0.00 0.00 0.00 0.01 0.01 0.01 0.00 0.00 0.00 0.00 0.00
0.42 0.43 0.41 0.34 0.28 0.19 0.12 0.07 0.03 0.02 0.01 0.01 0.00 0.00 0.00 0.00 0.00 0.00 0.00 0.01 0.00 0.00 0.00 0.01 0.09 0.06 0.01 0.00 0.00 0.00 0.00 0.00 0.00 0.00 0.00 0.00 0.00 0.00 0.00 0.01 0.01 0.00 0.00 0.00 0.00 0.00 0.00
0.32 0.33 0.30 0.22 0.17 0.15 0.11 0.09 0.06 0.04 0.02 0.01 0.00 0.00 0.00 0.00 0.00 0.00 0.00 0.01 0.01 0.01 0.03 0.00 0.02 0.00 0.00 0.00 0.00 0.00 0.00 0.00 0.00 0.00 0.00 0.00 0.00 0.00 0.00 0.00 0.00 0.00 0.00 0.00 0.00 0.00 0.00
0.21 0.24 0.25 0.20 0.16 0.14 0.14 0.12 0.08 0.05 0.04 0.03 0.03 0.02 0.01 0.00 0.00 0.00 0.02 0.02 0.00 0.03 0.06 0.00 0.00 0.00 0.00 0.00 0.00 0.00 0.00 0.00 0.00 0.00 0.00 0.00 0.00 0.00 0.00 0.00 0.00 0.00 0.00 0.00 0.00 0.00 0.00
0.20 0.22 0.22 0.20 0.17 0.14 0.12 0.11 0.11 0.09 0.07 0.05 0.03 0.03 0.02 0.02 0.02 0.01 0.01 0.00 0.00 0.04 0.18 0.03 0.00 0.00 0.00 0.00 0.00 0.00 0.00 0.00 0.00 0.00 0.00 0.00 0.00 0.00 0.00 0.00 0.00 0.00 0.00 0.00 0.00 0.00 0.00
0.15 0.16 0.19 0.20 0.19 0.15 0.12 0.13 0.12 0.10 0.09 0.08 0.06 0.05 0.05 0.07 0.04 0.01 0.02 0.01 0.01 0.12 0.72 0.32 0.00 0.00 0.00 0.00 0.00 0.00 0.00 0.00 0.00 0.00 0.01 0.01 0.00 0.00 0.00 0.00 0.00 0.00 0.00 0.00 0.00 0.00 0.00
0.18 0.17 0.20 0.22 0.23 0.21 0.19 0.18 0.17 0.16 0.14 0.14 0.12 0.10 0.09 0.16 0.09 0.08 0.04 0.02 0.05 0.28 1.10 0.32 0.00 0.00 0.00 0.00 0.00 0.00 0.00 0.00 0.00 0.00 0.03 0.01 0.00 0.00 0.00 0.00 0.00 0.00 0.00 0.00 0.00 0.00 0.02
0.09 0.09 0.10 0.14 0.16 0.15 0.13 0.11 0.12 0.13 0.12 0.13 0.13 0.13 0.10 0.11 0.12 0.12 0.12 0.18 0.56 0.86 0.85 0.08 0.00 0.00 0.00 0.00 0.00 0.00 0.00 0.00 0.00 0.01 0.03 0.01 0.00 0.00 0.00 0.00 0.00 0.00 0.00 0.00 0.01 0.04 0.11
0.02 0.03 0.03 0.04 0.05 0.06 0.07 0.07 0.07 0.06 0.04 0.04 0.07 0.09 0.07 0.10 0.11 0.10 0.08 0.23 0.78 0.93 0.25 0.01 0.00 0.00 0.01 0.01 0.02 0.01 0.05 0.05 0.03 0.04 0.02 0.01 0.00 0.00 0.00 0.00 0.00 0.00 0.01 0.05 0.07 0.08 0.11
0.01 0.01 0.01 0.01 0.02 0.02 0.03 0.03 0.04 0.04 0.02 0.01 0.01 0.02 0.03 0.04 0.11 0.20 0.28 0.47 0.81 0.37 0.05 0.00 0.00 0.00 0.01 0.01 0.05 0.07 0.12 0.10 0.04 0.08 0.09 0.09 0.03 0.00 0.00 0.01 0.00 0.01 0.03 0.07 0.04 0.02 0.01
0.00 0.01 0.01 0.01 0.01 0.01 0.01 0.01 0.02 0.02 0.02 0.01 0.00 0.01 0.02 0.01 0.04 0.23 0.57 0.77 0.47 0.13 0.08 0.05 0.01 0.05 0.03 0.04 0.06 0.11 0.13 0.10 0.06 0.14 0.20 0.19 0.13 0.00 0.00 0.00 0.01 0.01 0.06 0.02 0.08 0.05 0.11
0.00 0.00 0.00 0.00 0.00 0.01 0.01 0.01 0.00 0.00 0.01 0.01 0.03 0.02 0.00 0.00 0.05 0.11 0.49 0.53 0.16 0.02 0.12 0.17 0.20 0.30 0.33 0.24 0.25 0.26 0.24 0.23 0.21 0.31 0.44 0.59 0.45 0.06 0.00 0.02 0.03 0.05 0.03 0.09 0.13 0.30 0.24
0.01 0.01 0.00 0.00 0.00 0.00 0.00 0.00 0.00 0.00 0.00 0.01 0.04 0.03 0.00 0.02 0.12 0.19 0.28 0.14 0.06 0.01 0.05 0.20 0.22 0.30 0.16 0.11 0.23 0.27 0.28 0.14 0.18 0.25 0.25 0.29 0.42 0.24 0.08 0.12 0.13 0.16 0.26 0.23 0.28 0.36 0.38
0.01 0.02 0.02 0.03 0.02 0.02 0.01 0.00 0.00 0.01 0.01 0.01 0.03 0.03 0.03 0.08 0.09 0.07 0.08 0.04 0.04 0.02 0.03 0.09 0.11 0.13 0.13 0.07 0.13 0.12 0.16 0.13 0.10 0.10 0.23 0.24 0.27 0.18 0.05 0.04 0.10 0.20 0.39 0.57 0.78 0.71 0.55
0.01 0.00 0.01 0.01 0.01 0.02 0.02 0.02 0.01 0.00 0.01 0.04 0.05 0.02 0.03 0.12 0.05 0.04 0.02 0.02 0.05 0.04 0.05 0.10 0.08 0.05 0.04 0.06 0.08 0.04 0.05 0.03 0.02 0.01 0.07 0.06 0.18 0.15 0.03 0.02 0.12 0.22 0.28 0.48 0.75 0.97 0.62
0.00 0.00 0.00 0.00 0.00 0.01 0.02 0.03 0.04 0.05 0.03 0.05 0.07 0.03 0.03 0.07 0.02 0.02 0.03 0.05 0.04 0.02 0.03 0.06 0.08 0.07 0.07 0.03 0.04 0.03 0.00 0.00 0.00 0.00 0.00 0.01 0.04 0.08 0.07 0.02 0.08 0.04 0.03 0.06 0.20 0.41 0.41
0.01 0.01 0.01 0.01 0.01 0.01 0.01 0.02 0.03 0.08 0.12 0.11 0.07 0.04 0.02 0.06 0.04 0.03 0.03 0.02 0.01 0.03 0.06 0.07 0.09 0.05 0.07 0.06 0.04 0.03 0.01 0.02 0.01 0.00 0.01 0.04 0.04 0.01 0.00 0.00 0.00 0.00 0.00 0.00 0.04 0.09 0.17
0.02 0.02 0.01 0.01 0.01 0.02 0.02 0.03 0.03 0.06 0.16 0.20 0.06 0.02 0.05 0.03 0.03 0.07 0.10 0.05 0.03 0.04 0.09 0.08 0.07 0.05 0.12 0.09 0.04 0.02 0.02 0.03 0.03 0.01 0.01 0.04 0.05 0.01 0.00 0.00 0.00 0.00 0.00 0.00 0.00 0.01 0.07
0.02 0.02 0.02 0.02 0.02 0.02 0.04 0.05 0.04 0.05 0.15 0.24 0.14 0.07 0.14 0.08 0.06 0.07 0.07 0.10 0.08 0.10 0.10 0.09 0.12 0.17 0.15 0.12 0.12 0.11 0.05 0.01 0.01 0.00 0.00 0.00 0.01 0.00 0.00 0.00 0.00 0.01 0.00 0.00 0.00 0.00 0.03
0.01 0.01 0.02 0.02 0.03 0.03 0.06 0.08 0.08 0.07 0.13 0.14 0.08 0.09 0.18 0.09 0.06 0.07 0.08 0.08 0.09 0.08 0.10 0.05 0.05 0.05 0.04 0.01 0.00 0.01 0.00 0.00 0.00 0.00 0.01 0.00 0.00 0.01 0.00 0.00 0.01 0.00 0.00 0.00 0.00 0.00 0.00
0.01 0.01 0.02 0.02 0.03 0.06 0.10 0.12 0.12 0.11 0.10 0.17 0.14 0.11 0.12 0.09 0.11 0.11 0.07 0.09 0.11 0.11 0.06 0.03 0.02 0.02 0.01 0.02 0.01 0.00 0.00 0.00 0.00 0.00 0.00 0.00 0.03 0.05 0.02 0.01 0.00 0.00 0.00 0.01 0.01 0.01 0.00
0.00 0.00 0.01 0.02 0.03 0.06 0.10 0.12 0.12 0.12 0.12 0.16 0.14 0.12 0.16 0.14 0.10 0.09 0.20 0.22 0.11 0.10 0.08 0.03 0.01 0.00 0.01 0.03 0.05 0.02 0.00 0.00 0.00 0.01 0.02 0.07 0.10 0.13 0.06 0.04 0.01 0.03 0.03 0.00 0.03 0.03 0.01
0.00 0.00 0.01 0.02 0.04 0.06 0.11 0.14 0.09 0.12 0.22 0.25 0.18 0.09 0.17 0.10 0.06 0.08 0.10 0.14 0.12 0.10 0.07 0.07 0.06 0.07 0.08 0.09 0.09 0.06 0.05 0.05 0.06 0.08 0.06 0.04 0.11 0.32 0.29 0.26 0.16 0.11 0.02 0.03 0.14 0.18 0.15
0.00 0.00 0.00 0.00 0.01 0.04 0.04 0.08 0.11 0.17 0.28 0.41 0.28 0.08 0.11 0.15 0.08 0.05 0.03 0.06 0.12 0.13 0.14 0.14 0.08 0.10 0.13 0.13 0.12 0.15 0.18 0.20 0.10 0.07 0.04 0.04 0.04 0.12 0.09 0.26 0.37 0.08 0.05 0.15 0.20 0.13 0.09
0.00 0.00 0.01 0.00 0.00 0.01 0.02 0.03 0.05 0.05 0.09 0.22 0.26 0.26 0.12 0.14 0.08 0.04 0.01 0.01 0.05 0.07 0.10 0.10 0.12 0.12 0.11 0.12 0.20 0.11 0.07 0.04 0.02 0.03 0.01 0.02 0.01 0.01 0.01 0.04 0.02 0.04 0.11 0.11 0.12 0.19 0.14

GFSGBSN_prec_precacc6_201.txt.gz
Total_Precipitation_Accumulation
0.00 0.00 0.00 0.00 0.00 0.00 0.00 0.00 0.00 0.00 0.00 0.00 0.00 0.00 0.00 0.00 0.00 0.00 0.00 0.00 0.00 0.00 0.00 0.00 0.00 0.00 0.01 0.00 0.00 0.00 0.00 0.00 0.00 0.00 0.00 0.00 0.00 0.00 0.00 0.00 0.00 0.00 0.00 0.00 0.00 0.00 0.00
0.00 0.00 0.00 0.00 0.00 0.00 0.00 0.00 0.00 0.00 0.00 0.00 0.00 0.00 0.00 0.00 0.00 0.00 0.00 0.00 0.00 0.00 0.00 0.00 0.00 0.03 0.06 0.06 0.00 0.00 0.00 0.00 0.00 0.00 0.00 0.00 0.00 0.00 0.00 0.00 0.00 0.00 0.00 0.00 0.00 0.00 0.00
0.00 0.00 0.00 0.00 0.00 0.00 0.00 0.00 0.00 0.00 0.00 0.00 0.00 0.00 0.00 0.00 0.00 0.00 0.00 0.00 0.00 0.00 0.01 0.01 0.01 0.05 0.16 0.04 0.00 0.00 0.00 0.00 0.00 0.00 0.00 0.00 0.00 0.00 0.00 0.00 0.00 0.00 0.00 0.00 0.00 0.00 0.00
0.01 0.00 0.00 0.00 0.00 0.00 0.00 0.00 0.00 0.00 0.00 0.00 0.00 0.00 0.00 0.00 0.00 0.00 0.00 0.00 0.00 0.01 0.01 0.01 0.03 0.09 0.16 0.00 0.00 0.00 0.00 0.00 0.00 0.00 0.00 0.00 0.00 0.00 0.00 0.00 0.00 0.00 0.00 0.00 0.00 0.00 0.00
0.35 0.34 0.31 0.27 0.22 0.18 0.15 0.12 0.10 0.07 0.02 0.01 0.01 0.00 0.00 0.00 0.00 0.00 0.00 0.01 0.01 0.01 0.00 0.01 0.04 0.04 0.04 0.00 0.00 0.00 0.00 0.00 0.00 0.00 0.00 0.00 0.00 0.00 0.00 0.02 0.02 0.01 0.00 0.00 0.00 0.00 0.00
0.31 0.38 0.42 0.41 0.38 0.34 0.29 0.27 0.23 0.17 0.13 0.09 0.05 0.03 0.02 0.01 0.00 0.00 0.01 0.02 0.01 0.01 0.00 0.02 0.06 0.03 0.00 0.00 0.00 0.00 0.00 0.00 0.00 0.00 0.00 0.00 0.00 0.00 0.02 0.02 0.01 0.00 0.00 0.00 0.00 0.00 0.00
0.21 0.25 0.29 0.28 0.28 0.26 0.24 0.22 0.18 0.15 0.13 0.11 0.08 0.05 0.03 0.02 0.01 0.01 0.02 0.02 0.01 0.01 0.02 0.00 0.03 0.00 0.00 0.00 0.00 0.00 0.00 0.00 0.00 0.00 0.00 0.00 0.00 0.01 0.00 0.00 0.00 0.00 0.00 0.00 0.00 0.00 0.00
0.12 0.15 0.16 0.16 0.17 0.17 0.18 0.18 0.16 0.15 0.13 0.12 0.12 0.10 0.08 0.06 0.06 0.06 0.07 0.05 0.01 0.04 0.08 0.00 0.00 0.00 0.00 0.00 0.00 0.00 0.00 0.00 0.00 0.00 0.00 0.00 0.00 0.00 0.00 0.00 0.00 0.00 0.00 0.00 0.00 0.00 0.00
0.11 0.14 0.15 0.15 0.17 0.16 0.15 0.16 0.16 0.15 0.14 0.14 0.12 0.10 0.08 0.09 0.13 0.13 0.08 0.02 0.00 0.10 0.37 0.07 0.00 0.00 0.00 0.00 0.00 0.00 0.00 0.00 0.00 0.01 0.02 0.00 0.00 0.00 0.00 0.00 0.00 0.00 0.00 0.00 0.00 0.00 0.00
0.08 0.11 0.14 0.15 0.17 0.16 0.15 0.18 0.18 0.17 0.15 0.15 0.14 0.12 0.10 0.15 0.17 0.16 0.16 0.10 0.03 0.18 0.94 0.43 0.00 0.00 0.00 0.00 0.00 0.00 0.00 0.00 0.00 0.00 0.04 0.02 0.00 0.00 0.00 0.00 0.01 0.01 0.00 0.00 0.00 0.00 0.01
0.08 0.09 0.12 0.16 0.18 0.18 0.16 0.18 0.19 0.18 0.16 0.15 0.15 0.14 0.13 0.20 0.22 0.25 0.20 0.16 0.19 0.50 1.27 0.36 0.00 0.00 0.00 0.00 0.00 0.00 0.00 0.00 0.00 0.00 0.07 0.01 0.00 0.00 0.00 0.00 0.01 0.01 0.00 0.00 0.00 0.01 0.05
0.03 0.03 0.04 0.07 0.11 0.12 0.11 0.10 0.10 0.10 0.09 0.10 0.11 0.10 0.08 0.13 0.16 0.16 0.18 0.23 0.67 1.19 1.05 0.14 0.00 0.00 0.00 0.00 0.00 0.00 0.00 0.00 0.00 0.02 0.07 0.01 0.00 0.00 0.00 0.00 0.00 0.00 0.00 0.00 0.01 0.04 0.12
0.01 0.01 0.01 0.01 0.02 0.03 0.05 0.06 0.06 0.06 0.04 0.04 0.04 0.05 0.05 0.10 0.15 0.11 0.08 0.22 0.73 0.99 0.37 0.04 0.00 0.00 0.00 0.00 0.01 0.01 0.04 0.06 0.04 0.06 0.03 0.01 0.00 0.00 0.00 0.02 0.00 0.01 0.04 0.09 0.09 0.07 0.09
0.00 0.01 0.01 0.01 0.01 0.01 0.01 0.01 0.02 0.03 0.03 0.02 0.01 0.01 0.01 0.03 0.13 0.23 0.22 0.39 0.80 0.33 0.05 0.00 0.00 0.00 0.00 0.00 0.04 0.05 0.09 0.09 0.08 0.13 0.14 0.14 0.06 0.00 0.00 0.03 0.00 0.01 0.08 0.17 0.16 0.05 0.02
0.00 0.00 0.00 0.00 0.01 0.01 0.02 0.01 0.01 0.01 0.02 0.02 0.00 0.00 0.01 0.01 0.03 0.23 0.51 0.58 0.39 0.10 0.05 0.04 0.01 0.01 0.02 0.03 0.04 0.07 0.10 0.11 0.15 0.22 0.30 0.36 0.24 0.02 0.00 0.00 0.04 0.03 0.12 0.04 0.14 0.09 0.14
0.01 0.00 0.00 0.00 0.00 0.00 0.00 0.00 0.01 0.01 0.00 0.00 0.01 0.02 0.00 0.01 0.05 0.05 0.39 0.35 0.09 0.01 0.07 0.15 0.24 0.21 0.21 0.14 0.12 0.16 0.18 0.24 0.21 0.29 0.39 0.55 0.44 0.06 0.01 0.01 0.04 0.12 0.16 0.19 0.20 0.37 0.34
0.02 0.02 0.02 0.02 0.01 0.01 0.01 0.00 0.00 0.01 0.01 0.00 0.01 0.02 0.00 0.02 0.11 0.09 0.10 0.04 0.01 0.00 0.03 0.16 0.12 0.25 0.13 0.09 0.25 0.25 0.22 0.13 0.13 0.23 0.24 0.22 0.33 0.10 0.05 0.10 0.17 0.20 0.35 0.40 0.67 0.82 0.87
0.01 0.01 0.01 0.02 0.02 0.03 0.03 0.03 0.02 0.01 0.01 0.01 0.00 0.02 0.04 0.07 0.06 0.03 0.04 0.01 0.01 0.01 0.02 0.05 0.05 0.05 0.06 0.02 0.11 0.15 0.12 0.05 0.03 0.06 0.21 0.16 0.23 0.15 0.05 0.03 0.06 0.21 0.45 0.52 0.72 0.76 0.66
0.01 0.00 0.00 0.01 0.01 0.01 0.02 0.03 0.03 0.03 0.01 0.01 0.03 0.01 0.04 0.15 0.04 0.02 0.00 0.00 0.01 0.01 0.03 0.08 0.09 0.05 0.04 0.04 0.05 0.02 0.03 0.01 0.01 0.02 0.08 0.08 0.14 0.13 0.02 0.02 0.13 0.19 0.17 0.18 0.27 0.38 0.30
0.00 0.00 0.00 0.00 0.00 0.01 0.01 0.01 0.03 0.06 0.05 0.04 0.07 0.03 0.03 0.07 0.01 0.01 0.01 0.01 0.01 0.00 0.01 0.03 0.06 0.07 0.08 0.05 0.05 0.02 0.00 0.01 0.05 0.05 0.04 0.04 0.02 0.02 0.02 0.01 0.04 0.04 0.02 0.02 0.06 0.16 0.15
0.01 0.01 0.01 0.01 0.01 0.01 0.01 0.01 0.02 0.04 0.11 0.12 0.06 0.02 0.01 0.05 0.03 0.02 0.02 0.01 0.00 0.00 0.01 0.03 0.06 0.06 0.08 0.07 0.04 0.02 0.01 0.02 0.03 0.05 0.03 0.02 0.02 0.01 0.00 0.00 0.00 0.00 0.00 0.00 0.02 0.03 0.04
0.02 0.03 0.02 0.02 0.02 0.02 0.03 0.03 0.03 0.05 0.14 0.17 0.09 0.02 0.03 0.02 0.01 0.04 0.08 0.04 0.02 0.00 0.01 0.01 0.02 0.02 0.05 0.07 0.08 0.03 0.02 0.04 0.04 0.04 0.06 0.06 0.10 0.04 0.03 0.00 0.00 0.00 0.00 0.00 0.00 0.01 0.01
0.02 0.01 0.01 0.01 0.02 0.02 0.04 0.04 0.04 0.05 0.17 0.12 0.08 0.05 0.12 0.06 0.05 0.06 0.04 0.04 0.03 0.07 0.04 0.04 0.07 0.10 0.09 0.06 0.10 0.11 0.07 0.05 0.03 0.02 0.03 0.04 0.05 0.01 0.01 0.00 0.00 0.00 0.00 0.00 0.00 0.00 0.00
0.00 0.00 0.01 0.01 0.01 0.02 0.05 0.08 0.09 0.08 0.15 0.10 0.05 0.08 0.18 0.09 0.04 0.02 0.03 0.04 0.04 0.06 0.09 0.05 0.07 0.07 0.06 0.04 0.02 0.01 0.01 0.01 0.03 0.04 0.03 0.02 0.00 0.00 0.00 0.00 0.00 0.00 0.00 0.00 0.00 0.00 0.00
0.00 0.01 0.00 0.01 0.02 0.02 0.05 0.09 0.12 0.13 0.15 0.17 0.12 0.11 0.11 0.05 0.05 0.05 0.06 0.05 0.09 0.10 0.07 0.04 0.04 0.05 0.04 0.05 0.04 0.01 0.00 0.00 0.00 0.00 0.00 0.00 0.01 0.03 0.02 0.01 0.00 0.00 0.00 0.00 0.01 0.00 0.00
0.00 0.00 0.00 0.01 0.01 0.03 0.07 0.08 0.12 0.15 0.17 0.19 0.11 0.13 0.21 0.12 0.04 0.03 0.08 0.19 0.13 0.08 0.09 0.06 0.01 0.01 0.02 0.03 0.04 0.01 0.00 0.00 0.00 0.00 0.00 0.04 0.09 0.12 0.07 0.06 0.01 0.01 0.00 0.00 0.01 0.02 0.00
0.00 0.00 0.00 0.00 0.01 0.03 0.04 0.08 0.09 0.15 0.22 0.23 0.18 0.10 0.33 0.20 0.03 0.07 0.09 0.13 0.14 0.15 0.16 0.10 0.06 0.06 0.05 0.05 0.04 0.02 0.01 0.01 0.02 0.03 0.04 0.05 0.07 0.16 0.24 0.27 0.20 0.10 0.01 0.00 0.07 0.05 0.07
0.00 0.00 0.00 0.01 0.01 0.02 0.02 0.05 0.11 0.17 0.25 0.27 0.22 0.11 0.16 0.23 0.06 0.05 0.05 0.05 0.12 0.18 0.25 0.19 0.09 0.10 0.11 0.09 0.07 0.09 0.15 0.21 0.11 0.10 0.09 0.05 0.04 0.13 0.08 0.17 0.26 0.04 0.01 0.03 0.05 0.00 0.04
0.00 0.00 0.00 0.00 0.01 0.00 0.01 0.04 0.05 0.03 0.15 0.25 0.30 0.27 0.13 0.13 0.11 0.06 0.02 0.01 0.04 0.13 0.18 0.10 0.13 0.16 0.15 0.10 0.16 0.09 0.09 0.14 0.09 0.06 0.07 0.04 0.02 0.01 0.00 0.02 0.00 0.00 0.00 0.00 0.01 0.00 0.03

GFSGBSN_prec_precacc6_204.txt.gz
Total_Precipitation_Accumulation
0.00 0.00 0.00 0.00 0.00 0.00 0.00 0.00 0.00 0.00 0.00 0.00 0.00 0.00 0.00 0.00 0.00 0.00 0.00 0.00 0.00 0.00 0.00 0.00 0.00 0.00 0.02 0.02 0.00 0.00 0.00 0.00 0.00 0.00 0.00 0.00 0.00 0.00 0.00 0.00 0.00 0.00 0.00 0.00 0.00 0.00 0.00
0.00 0.00 0.00 0.00 0.00 0.00 0.00 0.00 0.00 0.00 0.00 0.00 0.00 0.00 0.00 0.00 0.00 0.00 0.00 0.00 0.00 0.00 0.00 0.00 0.01 0.04 0.09 0.10 0.00 0.00 0.00 0.00 0.00 0.00 0.00 0.00 0.00 0.00 0.00 0.00 0.00 0.00 0.00 0.00 0.00 0.00 0.00
0.00 0.00 0.00 0.00 0.00 0.00 0.00 0.00 0.00 0.00 0.00 0.00 0.00 0.00 0.00 0.00 0.00 0.00 0.00 0.00 0.00 0.01 0.01 0.01 0.02 0.04 0.15 0.04 0.00 0.00 0.00 0.00 0.00 0.00 0.00 0.00 0.00 0.00 0.00 0.00 0.00 0.00 0.00 0.00 0.00 0.00 0.00
0.02 0.01 0.01 0.00 0.00 0.00 0.00 0.00 0.00 0.00 0.00 0.00 0.00 0.00 0.00 0.00 0.00 0.00 0.00 0.00 0.01 0.01 0.01 0.01 0.04 0.07 0.12 0.00 0.00 0.00 0.00 0.00 0.00 0.00 0.00 0.00 0.00 0.00 0.00 0.00 0.00 0.00 0.00 0.00 0.00 0.00 0.00
0.05 0.06 0.09 0.11 0.16 0.17 0.16 0.13 0.12 0.09 0.07 0.04 0.03 0.02 0.01 0.00 0.00 0.00 0.00 0.01 0.02 0.02 0.01 0.02 0.04 0.03 0.03 0.00 0.00 0.00 0.00 0.00 0.00 0.00 0.00 0.00 0.00 0.00 0.01 0.02 0.03 0.01 0.00 0.00 0.00 0.00 0.00
0.05 0.06 0.08 0.12 0.16 0.19 0.20 0.22 0.23 0.21 0.18 0.16 0.14 0.10 0.08 0.05 0.03 0.03 0.04 0.09 0.09 0.06 0.03 0.04 0.11 0.05 0.00 0.00 0.00 0.00 0.00 0.00 0.00 0.00 0.00 0.00 0.00 0.00 0.02 0.02 0.01 0.00 0.00 0.00 0.00 0.00 0.00
0.06 0.06 0.09 0.14 0.17 0.17 0.18 0.16 0.15 0.16 0.17 0.17 0.16 0.14 0.12 0.10 0.10 0.12 0.21 0.26 0.24 0.11 0.05 0.01 0.03 0.00 0.00 0.00 0.00 0.00 0.00 0.00 0.00 0.00 0.00 0.00 0.00 0.00 0.00 0.00 0.00 0.00 0.00 0.00 0.00 0.00 0.00
0.04 0.04 0.05 0.07 0.10 0.10 0.11 0.12 0.10 0.12 0.13 0.14 0.14 0.12 0.12 0.11 0.11 0.17 0.31 0.31 0.15 0.14 0.11 0.01 0.00 0.00 0.00 0.00 0.00 0.00 0.00 0.00 0.00 0.01 0.01 0.00 0.00 0.00 0.00 0.00 0.00 0.00 0.00 0.00 0.00 0.00 0.00
0.03 0.04 0.05 0.06 0.08 0.09 0.10 0.10 0.10 0.10 0.12 0.14 0.14 0.13 0.12 0.13 0.18 0.23 0.20 0.15 0.14 0.29 0.60 0.16 0.00 0.00 0.00 0.00 0.00 0.00 0.00 0.00 0.00 0.01 0.04 0.01 0.00 0.00 0.00 0.00 0.00 0.00 0.00 0.00 0.00 0.00 0.00
0.02 0.02 0.04 0.05 0.07 0.07 0.08 0.11 0.12 0.14 0.14 0.15 0.16 0.15 0.14 0.18 0.22 0.23 0.25 0.18 0.11 0.31 1.27 0.70 0.01 0.00 0.00 0.00 0.00 0.00 0.00 0.00 0.00 0.01 0.05 0.02 0.00 0.00 0.00 0.00 0.02 0.01 0.00 0.00 0.00 0.02 0.02
0.01 0.02 0.03 0.04 0.05 0.07 0.06 0.07 0.07 0.08 0.08 0.09 0.09 0.09 0.10 0.15 0.19 0.23 0.24 0.21 0.28 0.71 1.59 0.54 0.00 0.00 0.00 0.00 0.00 0.00 0.00 0.00 0.00 0.00 0.06 0.01 0.00 0.00 0.00 0.00 0.01 0.00 0.02 0.01 0.01 0.04 0.07
0.00 0.00 0.01 0.01 0.02 0.04 0.05 0.05 0.03 0.02 0.02 0.03 0.05 0.05 0.04 0.07 0.10 0.09 0.12 0.18 0.51 1.12 1.19 0.23 0.00 0.00 0.00 0.00 0.00 0.00 0.00 0.00 0.00 0.02 0.05 0.00 0.00 0.00 0.00 0.00 0.00 0.00 0.00 0.01 0.01 0.02 0.08
0.01 0.01 0.00 0.00 0.00 0.00 0.01 0.02 0.02 0.02 0.02 0.02 0.02 0.02 0.02 0.04 0.10 0.11 0.07 0.21 0.72 0.95 0.36 0.05 0.00 0.00 0.00 0.00 0.00 0.00 0.01 0.03 0.02 0.06 0.04 0.02 0.00 0.00 0.02 0.04 0.02 0.06 0.07 0.10 0.09 0.03 0.03
0.00 0.00 0.00 0.01 0.01 0.01 0.01 0.01 0.00 0.00 0.01 0.02 0.01 0.00 0.00 0.00 0.07 0.25 0.22 0.38 0.80 0.32 0.06 0.00 0.00 0.00 0.00 0.00 0.01 0.01 0.04 0.07 0.11 0.15 0.16 0.18 0.08 0.00 0.01 0.04 0.02 0.02 0.10 0.19 0.25 0.10 0.04
0.01 0.01 0.00 0.00 0.00 0.00 0.01 0.01 0.01 0.01 0.01 0.01 0.00 0.00 0.00 0.00 0.01 0.17 0.54 0.54 0.34 0.09 0.04 0.01 0.00 0.04 0.05 0.05 0.07 0.03 0.04 0.07 0.12 0.18 0.31 0.36 0.24 0.03 0.00 0.01 0.04 0.02 0.10 0.05 0.14 0.11 0.18
0.01 0.01 0.01 0.02 0.01 0.01 0.00 0.00 0.00 0.01 0.01 0.01 0.00 0.00 0.00 0.01 0.05 0.03 0.32 0.29 0.06 0.02 0.13 0.19 0.20 0.16 0.15 0.12 0.21 0.20 0.15 0.17 0.12 0.12 0.19 0.37 0.27 0.05 0.02 0.03 0.04 0.11 0.17 0.18 0.20 0.44 0.49
0.01 0.01 0.02 0.02 0.02 0.02 0.03 0.03 0.02 0.01 0.01 0.01 0.00 0.00 0.00 0.01 0.08 0.08 0.05 0.01 0.00 0.00 0.04 0.18 0.15 0.19 0.11 0.04 0.17 0.22 0.17 0.09 0.06 0.08 0.12 0.14 0.20 0.04 0.02 0.06 0.15 0.15 0.27 0.35 0.62 0.79 0.79
0.01 0.01 0.01 0.01 0.01 0.01 0.02 0.04 0.06 0.06 0.03 0.01 0.00 0.00 0.02 0.05 0.03 0.02 0.02 0.01 0.00 0.00 0.01 0.05 0.04 0.02 0.01 0.01 0.05 0.12 0.08 0.00 0.00 0.01 0.08 0.10 0.21 0.10 0.01 0.01 0.03 0.11 0.23 0.21 0.34 0.43 0.37
0.01 0.01 0.01 0.01 0.00 0.00 0.00 0.01 0.03 0.06 0.05 0.01 0.02 0.00 0.04 0.15 0.05 0.01 0.00 0.00 0.00 0.00 0.01 0.04 0.06 0.06 0.05 0.04 0.07 0.02 0.02 0.01 0.01 0.01 0.04 0.06 0.13 0.12 0.01 0.01 0.05 0.12 0.16 0.21 0.29 0.30 0.24
0.01 0.02 0.01 0.01 0.02 0.02 0.01 0.01 0.01 0.04 0.09 0.08 0.02 0.01 0.01 0.03 0.02 0.02 0.01 0.00 0.00 0.00 0.00 0.01 0.01 0.04 0.04 0.04 0.04 0.03 0.02 0.02 0.09 0.09 0.09 0.14 0.11 0.01 0.01 0.00 0.01 0.02 0.02 0.05 0.09 0.13 0.07
0.02 0.02 0.02 0.03 0.03 0.03 0.04 0.03 0.02 0.03 0.09 0.13 0.07 0.01 0.01 0.02 0.01 0.01 0.02 0.01 0.00 0.00 0.00 0.01 0.03 0.03 0.06 0.05 0.04 0.02 0.01 0.01 0.01 0.06 0.11 0.16 0.09 0.00 0.00 0.00 0.00 0.00 0.00 0.01 0.03 0.02 0.01
0.02 0.02 0.02 0.01 0.02 0.03 0.03 0.04 0.07 0.12 0.16 0.14 0.11 0.02 0.01 0.00 0.00 0.02 0.04 0.03 0.01 0.01 0.01 0.00 0.01 0.00 0.01 0.02 0.06 0.02 0.01 0.01 0.02 0.04 0.09 0.11 0.13 0.04 0.05 0.00 0.00 0.00 0.00 0.00 0.01 0.01 0.01
0.01 0.00 0.00 0.00 0.01 0.01 0.03 0.04 0.04 0.08 0.19 0.19 0.05 0.03 0.08 0.03 0.02 0.03 0.01 0.01 0.01 0.03 0.01 0.02 0.03 0.02 0.00 0.01 0.01 0.01 0.03 0.04 0.03 0.02 0.05 0.09 0.14 0.10 0.07 0.00 0.00 0.01 0.00 0.00 0.00 0.00 0.00
0.00 0.00 0.00 0.01 0.01 0.02 0.03 0.05 0.07 0.07 0.18 0.17 0.06 0.02 0.09 0.08 0.02 0.01 0.01 0.02 0.02 0.03 0.04 0.01 0.04 0.05 0.06 0.05 0.03 0.01 0.00 0.01 0.03 0.04 0.07 0.12 0.10 0.08 0.03 0.01 0.02 0.00 0.00 0.00 0.00 0.00 0.00
0.00 0.00 0.01 0.01 0.01 0.02 0.02 0.05 0.08 0.10 0.17 0.20 0.10 0.10 0.07 0.02 0.02 0.03 0.06 0.05 0.02 0.02 0.02 0.02 0.03 0.04 0.07 0.07 0.07 0.03 0.00 0.00 0.00 0.00 0.01 0.02 0.04 0.10 0.04 0.00 0.00 0.00 0.00 0.00 0.00 0.00 0.00
0.00 0.01 0.00 0.01 0.01 0.01 0.03 0.04 0.08 0.13 0.20 0.22 0.07 0.08 0.24 0.09 0.01 0.00 0.01 0.03 0.04 0.01 0.04 0.03 0.01 0.01 0.05 0.06 0.09 0.02 0.00 0.00 0.00 0.00 0.00 0.01 0.03 0.06 0.07 0.08 0.02 0.00 0.00 0.00 0.00 0.01 0.00
0.00 0.00 0.00 0.00 0.01 0.02 0.01 0.03 0.05 0.10 0.17 0.19 0.19 0.05 0.36 0.33 0.02 0.02 0.05 0.06 0.06 0.10 0.14 0.09 0.06 0.05 0.07 0.08 0.03 0.00 0.00 0.00 0.00 0.00 0.00 0.02 0.02 0.05 0.08 0.18 0.15 0.07 0.00 0.00 0.05 0.03 0.00
0.00 0.00 0.00 0.01 0.01 0.00 0.00 0.01 0.02 0.03 0.11 0.17 0.24 0.11 0.13 0.20 0.05 0.02 0.03 0.03 0.05 0.11 0.21 0.31 0.27 0.13 0.11 0.09 0.03 0.02 0.02 0.07 0.04 0.09 0.14 0.10 0.06 0.11 0.05 0.04 0.10 0.03 0.01 0.00 0.00 0.00 0.00
0.00 0.00 0.00 0.00 0.01 0.00 0.00 0.02 0.02 0.01 0.14 0.20 0.25 0.16 0.14 0.06 0.08 0.03 0.01 0.00 0.03 0.12 0.16 0.08 0.10 0.14 0.22 0.09 0.06 0.02 0.05 0.14 0.14 0.12 0.10 0.12 0.05 0.02 0.00 0.01 0.00 0.00 0.00 0.00 0.00 0.00 0.00